COSMOS 2251 DEB, 40223

Orbit data source: Space-Track

COSMOS 2251 DEB, 40223 is space debris in LEO originally from a launch on Wed, 16 Jun 1993 UTC launched from the Plesetsk Missile And Space Complex (PKMTR). The debris from Iridium 33, an American commercial communications satellite, has been tracked extensively since its accidental collision with the defunct Russian satellite Cosmos 2251 in 2009. This event, occurring at high speed in low Earth orbit (LEO), generated thousands of pieces of space debris, significantly increasing the risk of further collisions. The Iridium 33 debris cloud has impacted space traffic management and orbital debris mitigation strategies, making it a subject of ongoing study in space situational awareness.

Loading next visibility...
Identifier
40223, 1993-036BVC
Orbit
LEO
Country
Flag of CISCIS
Related business
Manufacturer
Unknown
Mission
Spacecraft
Bus & Motor
Unknown
Mass
Unknown
Launch date (UTC)
1993-06-16 (33 years ago)
Launch vehicle
Unknown
Launch site
Plesetsk Missile And Space Complex (PKMTR)
Object type
Payload
Rocket body
Debris
Shape & HBR
Unknown shape, 0.1 m
Radar Cross Section
Small (<0.1 m²)

Expand to show TLE details & history
Last TLE update: 3 days ago

TLE from 3 days ago
0 COSMOS 2251 DEB
1 40223U 93036BVC 26133.40871809  .00059567  00000-0  20198-2 0  9998
2 40223  73.9252 130.9022 0017934 259.2621 100.6562 15.30099622616728
Epoch: 2026-05-13T09:48Z
TLE epoch observation values (Epoch: 2026-05-13T09:48:33.242Z)
Latitude
-0.00006°
Longitude
112.59451°
Altitude
480.527 km
Speed
7.624 km/s
True Right ascension
08h 43m 36s
True Declination
0° 00' 00"
Sunlit
Object was in daylight at epoch
Visualization orbit readout
Latitude
Unknown
Longitude
Unknown
Altitude
Unknown
Speed
Unknown
Apparent Right ascension
Unknown
Apparent Declination
Unknown
Sunlit
N/A
Visualization observer readout
Local Sidereal Time
17:02:23
Azimuth
Unknown
Elevation
Unknown
Doppler factor
Unknown
Orbital elements
Apogee altitude
485.333 km
Perigee altitude
460.759 km
Semi-major axis
6,851.183 km
Eccentricity
0.00179
Inclination
73.9252°
RAAN
130.9022°
Arg. of periapsis
259.2621°
True anomaly
100.85808°
Mean anomaly
100.6562°
Eccentric anomaly
100.75715°
Mean motion
3.82732 °/min
Orbital period
94.06 mins
BSTAR
0.0020198
Loading maneuver chart data...
Computing Atmospheric mass density...

Documentation

Showing up to 5 results
|